owner,sensor,date,latitude,longitude,relative_humidity,qcFlag 
COMPS,ioos:station:USF.COMPS:C12:1,2016-05-01T00:05:00Z,27.4980,-83.7220,100.14,1111122 
COMPS,ioos:station:USF.COMPS:C12:1,2016-05-01T00:35:00Z,27.4980,-83.7220,100.61,1111122 
COMPS,ioos:station:USF.COMPS:C12:1,2016-05-01T01:05:00Z,27.4980,-83.7220,98.2,1111122 
COMPS,ioos:station:USF.COMPS:C12:1,2016-05-01T01:35:00Z,27.4980,-83.7220,99.22,1111122 
COMPS,ioos:station:USF.COMPS:C12:1,2016-05-01T02:05:00Z,27.4980,-83.7220,99.0,1111122 
COMPS,ioos:station:USF.COMPS:C12:1,2016-05-01T02:35:00Z,27.4980,-83.7220,97.61,1111122 
COMPS,ioos:station:USF.COMPS:C12:1,2016-05-01T03:05:00Z,27.4980,-83.7220,100.97,1111122 
COMPS,ioos:station:USF.COMPS:C12:1,2016-05-01T03:35:00Z,27.4980,-83.7220,99.32,1111122 
COMPS,ioos:station:USF.COMPS:C12:1,2016-05-01T04:05:00Z,27.4980,-83.7220,98.14,1111122 
COMPS,ioos:station:USF.COMPS:C12:1,2016-05-01T04:35:00Z,27.4980,-83.7220,98.37,1111122 
COMPS,ioos:station:USF.COMPS:C12:1,2016-05-01T05:05:00Z,27.4980,-83.7220,99.37,1111122 
COMPS,ioos:station:USF.COMPS:C12:1,2016-05-01T05:35:00Z,27.4980,-83.7220,100.14,1111122 
COMPS,ioos:station:USF.COMPS:C12:1,2016-05-01T06:05:00Z,27.4980,-83.7220,100.28,1111122 
COMPS,ioos:station:USF.COMPS:C12:1,2016-05-01T06:35:00Z,27.4980,-83.7220,100.0,1111122 
COMPS,ioos:station:USF.COMPS:C12:1,2016-05-01T07:05:00Z,27.4980,-83.7220,97.97,1111122 
COMPS,ioos:station:USF.COMPS:C12:1,2016-05-01T07:35:00Z,27.4980,-83.7220,98.99,1111122 
COMPS,ioos:station:USF.COMPS:C12:1,2016-05-01T08:05:00Z,27.4980,-83.7220,99.09,1111122 
COMPS,ioos:station:USF.COMPS:C12:1,2016-05-01T08:35:00Z,27.4980,-83.7220,99.48,1111122 
COMPS,ioos:station:USF.COMPS:C12:1,2016-05-01T09:05:00Z,27.4980,-83.7220,98.41,1111122 
COMPS,ioos:station:USF.COMPS:C12:1,2016-05-01T09:35:00Z,27.4980,-83.7220,98.39,1111122 
COMPS,ioos:station:USF.COMPS:C12:1,2016-05-01T10:05:00Z,27.4980,-83.7220,100.29,1111122 
COMPS,ioos:station:USF.COMPS:C12:1,2016-05-01T10:35:00Z,27.4980,-83.7220,100.13,1111122 
COMPS,ioos:station:USF.COMPS:C12:1,2016-05-01T11:05:00Z,27.4980,-83.7220,98.07,1111122 
COMPS,ioos:station:USF.COMPS:C12:1,2016-05-01T11:35:00Z,27.4980,-83.7220,97.29,1111122 
COMPS,ioos:station:USF.COMPS:C12:1,2016-05-01T12:05:00Z,27.4980,-83.7220,99.99,1111122 
COMPS,ioos:station:USF.COMPS:C12:1,2016-05-01T12:35:00Z,27.4980,-83.7220,98.39,1111122 
COMPS,ioos:station:USF.COMPS:C12:1,2016-05-01T13:05:00Z,27.4980,-83.7220,97.91,1111122 
COMPS,ioos:station:USF.COMPS:C12:1,2016-05-01T13:35:00Z,27.4980,-83.7220,97.06,1111122 
COMPS,ioos:station:USF.COMPS:C12:1,2016-05-01T14:05:00Z,27.4980,-83.7220,99.47,1111122 
COMPS,ioos:station:USF.COMPS:C12:1,2016-05-01T14:35:00Z,27.4980,-83.7220,98.82,1111122 
COMPS,ioos:station:USF.COMPS:C12:1,2016-05-01T15:05:00Z,27.4980,-83.7220,99.32,1111122 
COMPS,ioos:station:USF.COMPS:C12:1,2016-05-01T15:35:00Z,27.4980,-83.7220,97.4,1111122 
COMPS,ioos:station:USF.COMPS:C12:1,2016-05-01T16:05:00Z,27.4980,-83.7220,98.0,1111122 
COMPS,ioos:station:USF.COMPS:C12:1,2016-05-01T16:35:00Z,27.4980,-83.7220,97.51,1111122 
COMPS,ioos:station:USF.COMPS:C12:1,2016-05-01T17:05:00Z,27.4980,-83.7220,98.74,1111122 
COMPS,ioos:station:USF.COMPS:C12:1,2016-05-01T17:35:00Z,27.4980,-83.7220,98.94,1111122 
COMPS,ioos:station:USF.COMPS:C12:1,2016-05-01T18:05:00Z,27.4980,-83.7220,97.28,1111122 
COMPS,ioos:station:USF.COMPS:C12:1,2016-05-01T18:35:00Z,27.4980,-83.7220,99.23,1111122 
COMPS,ioos:station:USF.COMPS:C12:1,2016-05-01T19:05:00Z,27.4980,-83.7220,99.94,1111122 
COMPS,ioos:station:USF.COMPS:C12:1,2016-05-01T19:35:00Z,27.4980,-83.7220,99.62,1111122 
COMPS,ioos:station:USF.COMPS:C12:1,2016-05-01T20:05:00Z,27.4980,-83.7220,100.98,1111122 
COMPS,ioos:station:USF.COMPS:C12:1,2016-05-01T20:35:00Z,27.4980,-83.7220,100.97,1111122 
COMPS,ioos:station:USF.COMPS:C12:1,2016-05-01T21:05:00Z,27.4980,-83.7220,100.72,1111122 
COMPS,ioos:station:USF.COMPS:C12:1,2016-05-01T21:35:00Z,27.4980,-83.7220,100.37,1111122 
COMPS,ioos:station:USF.COMPS:C12:1,2016-05-01T22:05:00Z,27.4980,-83.7220,101.9,1111122 
COMPS,ioos:station:USF.COMPS:C12:1,2016-05-01T22:35:00Z,27.4980,-83.7220,103.22,1111122 
COMPS,ioos:station:USF.COMPS:C12:1,2016-05-02T00:35:00Z,27.4980,-83.7220,21.61,1111122 
COMPS,ioos:station:USF.COMPS:C12:1,2016-05-02T01:35:00Z,27.4980,-83.7220,100.81,1111122 
COMPS,ioos:station:USF.COMPS:C12:1,2016-05-02T02:05:00Z,27.4980,-83.7220,98.6,1111122 
COMPS,ioos:station:USF.COMPS:C12:1,2016-05-02T02:35:00Z,27.4980,-83.7220,98.67,1111122 
COMPS,ioos:station:USF.COMPS:C12:1,2016-05-02T03:05:00Z,27.4980,-83.7220,98.75,1111122 
COMPS,ioos:station:USF.COMPS:C12:1,2016-05-02T03:35:00Z,27.4980,-83.7220,100.47,1111122 
COMPS,ioos:station:USF.COMPS:C12:1,2016-05-02T04:05:00Z,27.4980,-83.7220,98.88,1111122 
COMPS,ioos:station:USF.COMPS:C12:1,2016-05-02T04:35:00Z,27.4980,-83.7220,100.58,1111122 
COMPS,ioos:station:USF.COMPS:C12:1,2016-05-02T05:05:00Z,27.4980,-83.7220,100.76,1111122 
COMPS,ioos:station:USF.COMPS:C12:1,2016-05-02T05:35:00Z,27.4980,-83.7220,98.27,1111122 
COMPS,ioos:station:USF.COMPS:C12:1,2016-05-02T06:05:00Z,27.4980,-83.7220,99.8,1111122 
COMPS,ioos:station:USF.COMPS:C12:1,2016-05-02T06:35:00Z,27.4980,-83.7220,100.77,1111122 
COMPS,ioos:station:USF.COMPS:C12:1,2016-05-02T07:05:00Z,27.4980,-83.7220,100.83,1111122 
COMPS,ioos:station:USF.COMPS:C12:1,2016-05-02T07:35:00Z,27.4980,-83.7220,99.98,1111122 
COMPS,ioos:station:USF.COMPS:C12:1,2016-05-02T08:05:00Z,27.4980,-83.7220,99.68,1111122 
COMPS,ioos:station:USF.COMPS:C12:1,2016-05-02T08:35:00Z,27.4980,-83.7220,100.9,1111122 
COMPS,ioos:station:USF.COMPS:C12:1,2016-05-02T09:05:00Z,27.4980,-83.7220,100.16,1111122 
COMPS,ioos:station:USF.COMPS:C12:1,2016-05-02T09:35:00Z,27.4980,-83.7220,100.77,1111122 
COMPS,ioos:station:USF.COMPS:C12:1,2016-05-02T10:05:00Z,27.4980,-83.7220,101.84,1111122 
COMPS,ioos:station:USF.COMPS:C12:1,2016-05-02T10:35:00Z,27.4980,-83.7220,101.14,1111122 
COMPS,ioos:station:USF.COMPS:C12:1,2016-05-02T11:05:00Z,27.4980,-83.7220,102.5,1111122 
COMPS,ioos:station:USF.COMPS:C12:1,2016-05-02T11:35:00Z,27.4980,-83.7220,100.21,1111122 
COMPS,ioos:station:USF.COMPS:C12:1,2016-05-02T12:05:00Z,27.4980,-83.7220,100.71,1111122 
COMPS,ioos:station:USF.COMPS:C12:1,2016-05-02T16:35:00Z,27.4980,-83.7220,20.22,1111122 
COMPS,ioos:station:USF.COMPS:C12:1,2016-05-02T18:05:00Z,27.4980,-83.7220,22.06,1111122 
COMPS,ioos:station:USF.COMPS:C12:1,2016-05-02T19:05:00Z,27.4980,-83.7220,20.57,1111122 
COMPS,ioos:station:USF.COMPS:C12:1,2016-05-02T20:05:00Z,27.4980,-83.7220,43.18,1111122 
COMPS,ioos:station:USF.COMPS:C12:1,2016-05-03T02:05:00Z,27.4980,-83.7220,41.16,1111122 
COMPS,ioos:station:USF.COMPS:C12:1,2016-05-03T02:35:00Z,27.4980,-83.7220,41.47,1111122 
COMPS,ioos:station:USF.COMPS:C12:1,2016-05-03T04:05:00Z,27.4980,-83.7220,21.08,1111122 
COMPS,ioos:station:USF.COMPS:C12:1,2016-05-03T04:35:00Z,27.4980,-83.7220,22.12,1111122 
COMPS,ioos:station:USF.COMPS:C12:1,2016-05-03T05:05:00Z,27.4980,-83.7220,40.7,1111122 
COMPS,ioos:station:USF.COMPS:C12:1,2016-05-03T05:35:00Z,27.4980,-83.7220,100.35,1111122 
COMPS,ioos:station:USF.COMPS:C12:1,2016-05-03T06:05:00Z,27.4980,-83.7220,101.17,1111122 
COMPS,ioos:station:USF.COMPS:C12:1,2016-05-03T06:35:00Z,27.4980,-83.7220,102.22,1111122 
COMPS,ioos:station:USF.COMPS:C12:1,2016-05-03T07:05:00Z,27.4980,-83.7220,100.82,1111122 
COMPS,ioos:station:USF.COMPS:C12:1,2016-05-03T07:35:00Z,27.4980,-83.7220,100.73,1111122 
COMPS,ioos:station:USF.COMPS:C12:1,2016-05-03T08:05:00Z,27.4980,-83.7220,100.31,1111122 
COMPS,ioos:station:USF.COMPS:C12:1,2016-05-03T08:35:00Z,27.4980,-83.7220,100.07,1111122 
COMPS,ioos:station:USF.COMPS:C12:1,2016-05-03T09:05:00Z,27.4980,-83.7220,99.81,1111122 
COMPS,ioos:station:USF.COMPS:C12:1,2016-05-03T09:35:00Z,27.4980,-83.7220,90.97,1111122 
COMPS,ioos:station:USF.COMPS:C12:1,2016-05-03T10:05:00Z,27.4980,-83.7220,100.23,1111122 
COMPS,ioos:station:USF.COMPS:C12:1,2016-05-03T10:35:00Z,27.4980,-83.7220,100.49,1111122 
COMPS,ioos:station:USF.COMPS:C12:1,2016-05-03T11:05:00Z,27.4980,-83.7220,99.06,1111122 
COMPS,ioos:station:USF.COMPS:C12:1,2016-05-03T11:35:00Z,27.4980,-83.7220,99.22,1111122 
COMPS,ioos:station:USF.COMPS:C12:1,2016-05-03T12:05:00Z,27.4980,-83.7220,101.67,1111122 
COMPS,ioos:station:USF.COMPS:C12:1,2016-05-03T12:35:00Z,27.4980,-83.7220,102.32,1111122 
COMPS,ioos:station:USF.COMPS:C12:1,2016-05-03T19:35:00Z,27.4980,-83.7220,102.07,1111122 
COMPS,ioos:station:USF.COMPS:C12:1,2016-05-03T20:05:00Z,27.4980,-83.7220,102.07,1111122 
COMPS,ioos:station:USF.COMPS:C12:1,2016-05-03T20:35:00Z,27.4980,-83.7220,82.34,1111122 
COMPS,ioos:station:USF.COMPS:C12:1,2016-05-08T01:35:00Z,27.4980,-83.7220,98.83,1111122 
COMPS,ioos:station:USF.COMPS:C12:1,2016-05-08T02:05:00Z,27.4980,-83.7220,90.23,1111122 
COMPS,ioos:station:USF.COMPS:C12:1,2016-05-08T02:35:00Z,27.4980,-83.7220,99.01,1111122 
COMPS,ioos:station:USF.COMPS:C12:1,2016-05-08T03:05:00Z,27.4980,-83.7220,100.33,1111122 
COMPS,ioos:station:USF.COMPS:C12:1,2016-05-08T03:35:00Z,27.4980,-83.7220,98.83,1111122 
COMPS,ioos:station:USF.COMPS:C12:1,2016-05-08T04:05:00Z,27.4980,-83.7220,99.17,1111122 
COMPS,ioos:station:USF.COMPS:C12:1,2016-05-08T04:35:00Z,27.4980,-83.7220,99.39,1111122 
COMPS,ioos:station:USF.COMPS:C12:1,2016-05-08T05:05:00Z,27.4980,-83.7220,100.32,1111122 
COMPS,ioos:station:USF.COMPS:C12:1,2016-05-08T05:35:00Z,27.4980,-83.7220,79.64,1111122 
COMPS,ioos:station:USF.COMPS:C12:1,2016-05-08T06:05:00Z,27.4980,-83.7220,79.99,1111122 
COMPS,ioos:station:USF.COMPS:C12:1,2016-05-08T06:35:00Z,27.4980,-83.7220,99.49,1111122 
COMPS,ioos:station:USF.COMPS:C12:1,2016-05-08T07:05:00Z,27.4980,-83.7220,99.23,1111122 
COMPS,ioos:station:USF.COMPS:C12:1,2016-05-08T07:35:00Z,27.4980,-83.7220,100.54,1111122 
COMPS,ioos:station:USF.COMPS:C12:1,2016-05-08T08:05:00Z,27.4980,-83.7220,99.75,1111122 
COMPS,ioos:station:USF.COMPS:C12:1,2016-05-08T08:35:00Z,27.4980,-83.7220,99.65,1111122 
COMPS,ioos:station:USF.COMPS:C12:1,2016-05-08T09:05:00Z,27.4980,-83.7220,100.54,1111122 
COMPS,ioos:station:USF.COMPS:C12:1,2016-05-08T09:35:00Z,27.4980,-83.7220,99.99,1111122 
COMPS,ioos:station:USF.COMPS:C12:1,2016-05-08T10:05:00Z,27.4980,-83.7220,100.0,1111122 
COMPS,ioos:station:USF.COMPS:C12:1,2016-05-08T10:35:00Z,27.4980,-83.7220,100.54,1111122 
COMPS,ioos:station:USF.COMPS:C12:1,2016-05-08T11:05:00Z,27.4980,-83.7220,99.55,1111122 
COMPS,ioos:station:USF.COMPS:C12:1,2016-05-08T11:35:00Z,27.4980,-83.7220,100.55,1111122 
COMPS,ioos:station:USF.COMPS:C12:1,2016-05-08T12:05:00Z,27.4980,-83.7220,100.42,1111122 
COMPS,ioos:station:USF.COMPS:C12:1,2016-05-08T12:35:00Z,27.4980,-83.7220,100.0,1111122 
COMPS,ioos:station:USF.COMPS:C12:1,2016-05-08T13:05:00Z,27.4980,-83.7220,100.24,1111122 
COMPS,ioos:station:USF.COMPS:C12:1,2016-05-08T13:35:00Z,27.4980,-83.7220,100.78,1111122 
COMPS,ioos:station:USF.COMPS:C12:1,2016-05-08T14:05:00Z,27.4980,-83.7220,101.59,1111122 
COMPS,ioos:station:USF.COMPS:C12:1,2016-05-08T14:35:00Z,27.4980,-83.7220,102.95,1111122 
COMPS,ioos:station:USF.COMPS:C12:1,2016-05-08T15:05:00Z,27.4980,-83.7220,103.83,1111122 
COMPS,ioos:station:USF.COMPS:C12:1,2016-05-08T15:35:00Z,27.4980,-83.7220,103.32,1111122 
COMPS,ioos:station:USF.COMPS:C12:1,2016-05-08T16:05:00Z,27.4980,-83.7220,103.16,1111122 
COMPS,ioos:station:USF.COMPS:C12:1,2016-05-08T16:35:00Z,27.4980,-83.7220,103.16,1111122 
COMPS,ioos:station:USF.COMPS:C12:1,2016-05-08T17:05:00Z,27.4980,-83.7220,102.93,1111122 
COMPS,ioos:station:USF.COMPS:C12:1,2016-05-08T17:35:00Z,27.4980,-83.7220,102.46,1111122 
COMPS,ioos:station:USF.COMPS:C12:1,2016-05-08T18:05:00Z,27.4980,-83.7220,102.33,1111122 
COMPS,ioos:station:USF.COMPS:C12:1,2016-05-08T18:35:00Z,27.4980,-83.7220,101.75,1111122 
COMPS,ioos:station:USF.COMPS:C12:1,2016-05-08T19:05:00Z,27.4980,-83.7220,101.49,1111122 
COMPS,ioos:station:USF.COMPS:C12:1,2016-05-08T19:35:00Z,27.4980,-83.7220,100.2,1111122 
COMPS,ioos:station:USF.COMPS:C12:1,2016-05-08T20:05:00Z,27.4980,-83.7220,101.27,1111122 
COMPS,ioos:station:USF.COMPS:C12:1,2016-05-08T20:35:00Z,27.4980,-83.7220,101.29,1111122 
COMPS,ioos:station:USF.COMPS:C12:1,2016-05-08T21:05:00Z,27.4980,-83.7220,100.85,1111122 
COMPS,ioos:station:USF.COMPS:C12:1,2016-05-08T21:35:00Z,27.4980,-83.7220,101.49,1111122 
COMPS,ioos:station:USF.COMPS:C12:1,2016-05-08T22:05:00Z,27.4980,-83.7220,101.82,1111122 
COMPS,ioos:station:USF.COMPS:C12:1,2016-05-08T22:35:00Z,27.4980,-83.7220,102.16,1111122 
COMPS,ioos:station:USF.COMPS:C12:1,2016-05-08T23:05:00Z,27.4980,-83.7220,102.33,1111122 
COMPS,ioos:station:USF.COMPS:C12:1,2016-05-08T23:35:00Z,27.4980,-83.7220,102.31,1111122 
COMPS,ioos:station:USF.COMPS:C12:1,2016-05-09T00:05:00Z,27.4980,-83.7220,102.01,1111122 
COMPS,ioos:station:USF.COMPS:C12:1,2016-05-09T00:35:00Z,27.4980,-83.7220,101.86,1111122 
COMPS,ioos:station:USF.COMPS:C12:1,2016-05-09T01:05:00Z,27.4980,-83.7220,101.76,1111122 
COMPS,ioos:station:USF.COMPS:C12:1,2016-05-09T01:35:00Z,27.4980,-83.7220,100.44,1111122 
COMPS,ioos:station:USF.COMPS:C12:1,2016-05-09T02:05:00Z,27.4980,-83.7220,101.69,1111122 
COMPS,ioos:station:USF.COMPS:C12:1,2016-05-09T02:35:00Z,27.4980,-83.7220,101.73,1111122 
COMPS,ioos:station:USF.COMPS:C12:1,2016-05-09T03:05:00Z,27.4980,-83.7220,101.72,1111122 
COMPS,ioos:station:USF.COMPS:C12:1,2016-05-09T03:35:00Z,27.4980,-83.7220,101.68,1111122 
COMPS,ioos:station:USF.COMPS:C12:1,2016-05-09T04:05:00Z,27.4980,-83.7220,101.65,1111122 
COMPS,ioos:station:USF.COMPS:C12:1,2016-05-09T04:35:00Z,27.4980,-83.7220,101.66,1111122 
COMPS,ioos:station:USF.COMPS:C12:1,2016-05-09T05:05:00Z,27.4980,-83.7220,101.61,1111122 
COMPS,ioos:station:USF.COMPS:C12:1,2016-05-09T05:35:00Z,27.4980,-83.7220,101.65,1111122 
COMPS,ioos:station:USF.COMPS:C12:1,2016-05-09T06:05:00Z,27.4980,-83.7220,101.63,1111122 
COMPS,ioos:station:USF.COMPS:C12:1,2016-05-09T06:35:00Z,27.4980,-83.7220,101.69,1111122 
COMPS,ioos:station:USF.COMPS:C12:1,2016-05-09T07:05:00Z,27.4980,-83.7220,101.59,1111122 
COMPS,ioos:station:USF.COMPS:C12:1,2016-05-09T07:35:00Z,27.4980,-83.7220,101.64,1111122 
COMPS,ioos:station:USF.COMPS:C12:1,2016-05-09T08:05:00Z,27.4980,-83.7220,101.68,1111122 
COMPS,ioos:station:USF.COMPS:C12:1,2016-05-09T08:35:00Z,27.4980,-83.7220,101.66,1111122 
COMPS,ioos:station:USF.COMPS:C12:1,2016-05-09T09:05:00Z,27.4980,-83.7220,101.39,1111122 
COMPS,ioos:station:USF.COMPS:C12:1,2016-05-09T09:35:00Z,27.4980,-83.7220,101.42,1111122 
COMPS,ioos:station:USF.COMPS:C12:1,2016-05-09T10:05:00Z,27.4980,-83.7220,101.6,1111122 
COMPS,ioos:station:USF.COMPS:C12:1,2016-05-09T10:35:00Z,27.4980,-83.7220,100.99,1111122 
COMPS,ioos:station:USF.COMPS:C12:1,2016-05-09T11:05:00Z,27.4980,-83.7220,101.43,1111122 
COMPS,ioos:station:USF.COMPS:C12:1,2016-05-09T11:35:00Z,27.4980,-83.7220,100.23,1111122 
COMPS,ioos:station:USF.COMPS:C12:1,2016-05-09T12:05:00Z,27.4980,-83.7220,100.84,1111122 
COMPS,ioos:station:USF.COMPS:C12:1,2016-05-09T12:35:00Z,27.4980,-83.7220,101.26,1111122 
COMPS,ioos:station:USF.COMPS:C12:1,2016-05-09T13:05:00Z,27.4980,-83.7220,100.81,1111122 
COMPS,ioos:station:USF.COMPS:C12:1,2016-05-09T13:35:00Z,27.4980,-83.7220,101.21,1111122 
COMPS,ioos:station:USF.COMPS:C12:1,2016-05-09T14:05:00Z,27.4980,-83.7220,101.17,1111122 
COMPS,ioos:station:USF.COMPS:C12:1,2016-05-09T14:35:00Z,27.4980,-83.7220,101.15,1111122 
COMPS,ioos:station:USF.COMPS:C12:1,2016-05-09T15:05:00Z,27.4980,-83.7220,101.13,1111122 
COMPS,ioos:station:USF.COMPS:C12:1,2016-05-09T15:35:00Z,27.4980,-83.7220,101.11,1111122 
COMPS,ioos:station:USF.COMPS:C12:1,2016-05-09T16:05:00Z,27.4980,-83.7220,100.75,1111122 
COMPS,ioos:station:USF.COMPS:C12:1,2016-05-09T16:35:00Z,27.4980,-83.7220,101.06,1111122 
COMPS,ioos:station:USF.COMPS:C12:1,2016-05-09T17:05:00Z,27.4980,-83.7220,101.05,1111122 
COMPS,ioos:station:USF.COMPS:C12:1,2016-05-09T17:35:00Z,27.4980,-83.7220,100.47,1111122 
COMPS,ioos:station:USF.COMPS:C12:1,2016-05-09T18:05:00Z,27.4980,-83.7220,100.99,1111122 
COMPS,ioos:station:USF.COMPS:C12:1,2016-05-09T18:35:00Z,27.4980,-83.7220,101.03,1111122 
COMPS,ioos:station:USF.COMPS:C12:1,2016-05-09T19:05:00Z,27.4980,-83.7220,101.01,1111122 
COMPS,ioos:station:USF.COMPS:C12:1,2016-05-09T19:35:00Z,27.4980,-83.7220,100.36,1111122 
COMPS,ioos:station:USF.COMPS:C12:1,2016-05-09T20:05:00Z,27.4980,-83.7220,100.95,1111122 
COMPS,ioos:station:USF.COMPS:C12:1,2016-05-09T20:35:00Z,27.4980,-83.7220,100.97,1111122 
COMPS,ioos:station:USF.COMPS:C12:1,2016-05-09T21:05:00Z,27.4980,-83.7220,100.76,1111122 
COMPS,ioos:station:USF.COMPS:C12:1,2016-05-10T01:05:00Z,27.4980,-83.7220,21.8,1111122 
COMPS,ioos:station:USF.COMPS:C12:1,2016-05-10T15:35:00Z,27.4980,-83.7220,1.98,1111122 
COMPS,ioos:station:USF.COMPS:C12:1,2016-05-10T18:35:00Z,27.4980,-83.7220,2.23,1111122 
COMPS,ioos:station:USF.COMPS:C12:1,2016-05-10T19:05:00Z,27.4980,-83.7220,2.27,1111122 
COMPS,ioos:station:USF.COMPS:C12:1,2016-05-10T19:35:00Z,27.4980,-83.7220,2.54,1111122 
COMPS,ioos:station:USF.COMPS:C12:1,2016-05-10T20:05:00Z,27.4980,-83.7220,2.04,1111122 
COMPS,ioos:station:USF.COMPS:C12:1,2016-05-10T21:05:00Z,27.4980,-83.7220,1.97,1111122 
COMPS,ioos:station:USF.COMPS:C12:1,2016-05-10T21:35:00Z,27.4980,-83.7220,1.77,1111122 
COMPS,ioos:station:USF.COMPS:C12:1,2016-05-10T22:05:00Z,27.4980,-83.7220,1.78,1111122 
COMPS,ioos:station:USF.COMPS:C12:1,2016-05-10T23:05:00Z,27.4980,-83.7220,1.49,1111122 
COMPS,ioos:station:USF.COMPS:C12:1,2016-05-11T00:35:00Z,27.4980,-83.7220,1.32,1111122 
COMPS,ioos:station:USF.COMPS:C12:1,2016-05-11T01:05:00Z,27.4980,-83.7220,1.26,1111122 
COMPS,ioos:station:USF.COMPS:C12:1,2016-05-11T04:05:00Z,27.4980,-83.7220,1.08,1111122 
COMPS,ioos:station:USF.COMPS:C12:1,2016-05-11T11:05:00Z,27.4980,-83.7220,1.03,1111122 
COMPS,ioos:station:USF.COMPS:C12:1,2016-05-11T11:35:00Z,27.4980,-83.7220,1.17,1111122 
COMPS,ioos:station:USF.COMPS:C12:1,2016-05-11T12:05:00Z,27.4980,-83.7220,1.19,1111122 
COMPS,ioos:station:USF.COMPS:C12:1,2016-05-11T12:35:00Z,27.4980,-83.7220,1.19,1111122 
COMPS,ioos:station:USF.COMPS:C12:1,2016-05-11T14:05:00Z,27.4980,-83.7220,1.31,1111122 
COMPS,ioos:station:USF.COMPS:C12:1,2016-05-11T14:35:00Z,27.4980,-83.7220,1.34,1111122 
COMPS,ioos:station:USF.COMPS:C12:1,2016-05-11T15:05:00Z,27.4980,-83.7220,1.56,1111122 
COMPS,ioos:station:USF.COMPS:C12:1,2016-05-11T15:35:00Z,27.4980,-83.7220,1.62,1111122 
COMPS,ioos:station:USF.COMPS:C12:1,2016-05-11T16:05:00Z,27.4980,-83.7220,1.76,1111122 
COMPS,ioos:station:USF.COMPS:C12:1,2016-05-11T16:35:00Z,27.4980,-83.7220,1.76,1111122 
COMPS,ioos:station:USF.COMPS:C12:1,2016-05-11T17:05:00Z,27.4980,-83.7220,1.74,1111122 
COMPS,ioos:station:USF.COMPS:C12:1,2016-05-11T17:35:00Z,27.4980,-83.7220,1.7,1111122 
COMPS,ioos:station:USF.COMPS:C12:1,2016-05-11T18:35:00Z,27.4980,-83.7220,1.65,1111122 
COMPS,ioos:station:USF.COMPS:C12:1,2016-05-11T19:05:00Z,27.4980,-83.7220,1.63,1111122 
COMPS,ioos:station:USF.COMPS:C12:1,2016-05-11T19:35:00Z,27.4980,-83.7220,1.66,1111122 
COMPS,ioos:station:USF.COMPS:C12:1,2016-05-11T21:05:00Z,27.4980,-83.7220,1.58,1111122 
COMPS,ioos:station:USF.COMPS:C12:1,2016-05-11T21:35:00Z,27.4980,-83.7220,1.63,1111122 
COMPS,ioos:station:USF.COMPS:C12:1,2016-05-11T22:35:00Z,27.4980,-83.7220,3.57,1111122 
COMPS,ioos:station:USF.COMPS:C12:1,2016-05-11T23:05:00Z,27.4980,-83.7220,6.02,1111122 
COMPS,ioos:station:USF.COMPS:C12:1,2016-05-11T23:35:00Z,27.4980,-83.7220,5.57,1111122 
COMPS,ioos:station:USF.COMPS:C12:1,2016-05-12T00:05:00Z,27.4980,-83.7220,4.11,1111122 
COMPS,ioos:station:USF.COMPS:C12:1,2016-05-12T00:35:00Z,27.4980,-83.7220,3.03,1111122 
COMPS,ioos:station:USF.COMPS:C12:1,2016-05-12T01:05:00Z,27.4980,-83.7220,2.6,1111122 
COMPS,ioos:station:USF.COMPS:C12:1,2016-05-12T01:35:00Z,27.4980,-83.7220,2.5,1111122 
COMPS,ioos:station:USF.COMPS:C12:1,2016-05-12T02:05:00Z,27.4980,-83.7220,2.46,1111122 
COMPS,ioos:station:USF.COMPS:C12:1,2016-05-12T02:35:00Z,27.4980,-83.7220,2.46,1111122 
COMPS,ioos:station:USF.COMPS:C12:1,2016-05-12T03:05:00Z,27.4980,-83.7220,2.41,1111122 
COMPS,ioos:station:USF.COMPS:C12:1,2016-05-12T03:35:00Z,27.4980,-83.7220,2.38,1111122 
COMPS,ioos:station:USF.COMPS:C12:1,2016-05-12T04:05:00Z,27.4980,-83.7220,2.37,1111122 
COMPS,ioos:station:USF.COMPS:C12:1,2016-05-12T04:35:00Z,27.4980,-83.7220,2.33,1111122 
COMPS,ioos:station:USF.COMPS:C12:1,2016-05-12T05:05:00Z,27.4980,-83.7220,2.33,1111122 
COMPS,ioos:station:USF.COMPS:C12:1,2016-05-12T05:35:00Z,27.4980,-83.7220,2.26,1111122 
COMPS,ioos:station:USF.COMPS:C12:1,2016-05-12T06:05:00Z,27.4980,-83.7220,2.3,1111122 
COMPS,ioos:station:USF.COMPS:C12:1,2016-05-12T06:35:00Z,27.4980,-83.7220,2.3,1111122 
COMPS,ioos:station:USF.COMPS:C12:1,2016-05-12T07:05:00Z,27.4980,-83.7220,2.3,1111122 
COMPS,ioos:station:USF.COMPS:C12:1,2016-05-12T07:35:00Z,27.4980,-83.7220,2.29,1111122 
COMPS,ioos:station:USF.COMPS:C12:1,2016-05-12T08:05:00Z,27.4980,-83.7220,2.26,1111122 
COMPS,ioos:station:USF.COMPS:C12:1,2016-05-12T08:35:00Z,27.4980,-83.7220,2.01,1111122 
COMPS,ioos:station:USF.COMPS:C12:1,2016-05-12T09:05:00Z,27.4980,-83.7220,1.96,1111122 
COMPS,ioos:station:USF.COMPS:C12:1,2016-05-12T10:05:00Z,27.4980,-83.7220,1.94,1111122 
COMPS,ioos:station:USF.COMPS:C12:1,2016-05-12T10:35:00Z,27.4980,-83.7220,1.91,1111122 
COMPS,ioos:station:USF.COMPS:C12:1,2016-05-12T11:05:00Z,27.4980,-83.7220,1.86,1111122 
COMPS,ioos:station:USF.COMPS:C12:1,2016-05-12T11:35:00Z,27.4980,-83.7220,1.94,1111122 
COMPS,ioos:station:USF.COMPS:C12:1,2016-05-12T12:05:00Z,27.4980,-83.7220,1.96,1111122 
COMPS,ioos:station:USF.COMPS:C12:1,2016-05-12T12:35:00Z,27.4980,-83.7220,2.06,1111122 
COMPS,ioos:station:USF.COMPS:C12:1,2016-05-12T13:05:00Z,27.4980,-83.7220,2.09,1111122 
COMPS,ioos:station:USF.COMPS:C12:1,2016-05-12T13:35:00Z,27.4980,-83.7220,2.21,1111122 
COMPS,ioos:station:USF.COMPS:C12:1,2016-05-12T14:05:00Z,27.4980,-83.7220,2.62,1111122 
COMPS,ioos:station:USF.COMPS:C12:1,2016-05-12T14:35:00Z,27.4980,-83.7220,2.88,1111122 
COMPS,ioos:station:USF.COMPS:C12:1,2016-05-12T15:05:00Z,27.4980,-83.7220,3.35,1111122 
COMPS,ioos:station:USF.COMPS:C12:1,2016-05-12T15:35:00Z,27.4980,-83.7220,4.16,1111122 
COMPS,ioos:station:USF.COMPS:C12:1,2016-05-12T16:05:00Z,27.4980,-83.7220,8.12,1111122 
COMPS,ioos:station:USF.COMPS:C12:1,2016-05-12T16:35:00Z,27.4980,-83.7220,7.83,1111122 
COMPS,ioos:station:USF.COMPS:C12:1,2016-05-12T17:05:00Z,27.4980,-83.7220,10.9,1111122 
COMPS,ioos:station:USF.COMPS:C12:1,2016-05-12T17:35:00Z,27.4980,-83.7220,6.81,1111122 
COMPS,ioos:station:USF.COMPS:C12:1,2016-05-12T18:05:00Z,27.4980,-83.7220,6.01,1111122 
COMPS,ioos:station:USF.COMPS:C12:1,2016-05-12T18:35:00Z,27.4980,-83.7220,6.4,1111122 
COMPS,ioos:station:USF.COMPS:C12:1,2016-05-12T19:05:00Z,27.4980,-83.7220,6.68,1111122 
COMPS,ioos:station:USF.COMPS:C12:1,2016-05-12T19:35:00Z,27.4980,-83.7220,6.78,1111122 
COMPS,ioos:station:USF.COMPS:C12:1,2016-05-12T20:05:00Z,27.4980,-83.7220,6.83,1111122 
COMPS,ioos:station:USF.COMPS:C12:1,2016-05-12T20:35:00Z,27.4980,-83.7220,6.91,1111122 
COMPS,ioos:station:USF.COMPS:C12:1,2016-05-12T21:05:00Z,27.4980,-83.7220,7.05,1111122 
COMPS,ioos:station:USF.COMPS:C12:1,2016-05-12T21:35:00Z,27.4980,-83.7220,6.58,1111122 
COMPS,ioos:station:USF.COMPS:C12:1,2016-05-12T22:05:00Z,27.4980,-83.7220,6.42,1111122 
COMPS,ioos:station:USF.COMPS:C12:1,2016-05-12T22:35:00Z,27.4980,-83.7220,7.33,1111122 
COMPS,ioos:station:USF.COMPS:C12:1,2016-05-12T23:05:00Z,27.4980,-83.7220,6.76,1111122 
COMPS,ioos:station:USF.COMPS:C12:1,2016-05-12T23:35:00Z,27.4980,-83.7220,9.13,1111122 
COMPS,ioos:station:USF.COMPS:C12:1,2016-05-13T00:05:00Z,27.4980,-83.7220,9.02,1111122 
COMPS,ioos:station:USF.COMPS:C12:1,2016-05-13T00:35:00Z,27.4980,-83.7220,12.11,1111122 
COMPS,ioos:station:USF.COMPS:C12:1,2016-05-13T01:05:00Z,27.4980,-83.7220,11.09,1111122 
COMPS,ioos:station:USF.COMPS:C12:1,2016-05-13T01:35:00Z,27.4980,-83.7220,10.74,1111122 
COMPS,ioos:station:USF.COMPS:C12:1,2016-05-13T02:05:00Z,27.4980,-83.7220,7.96,1111122 
COMPS,ioos:station:USF.COMPS:C12:1,2016-05-13T02:35:00Z,27.4980,-83.7220,7.04,1111122 
COMPS,ioos:station:USF.COMPS:C12:1,2016-05-13T03:05:00Z,27.4980,-83.7220,6.93,1111122 